[[{"header":{"parameterUnit":"m.s-1","parameterCategory":1,"la1":30.2991,"la2":30.254,"lo1":-89.0895,"lo2":-89.0444,"dy":0.0017,"dx":0.0017,"nx":28,"ny":28,"refTime":"2024-06-19T09:00:00:Z","depth":0,"parameterNumber":2,"parameterNumberName":"U-component_of_WINDS"},"data":[0,0,0,0,0,0,0,0,0,0,0,0,0,0,0,0,0,0,0,0,0,0,0,0,0,0,0,0,0,0,0,0,0,0,0,0,0,0,0,0,0,0,0,0,0,0,0,0,0,0,0,0,0,0,0,0,0,0,-5.7323,-5.7323,0,-5.7313,-5.7313,-5.7313,-5.7137,-5.7133,-5.7128,-5.7124,-5.7114,-5.7118,-5.7122,0,0,0,0,0,0,0,0,0,0,0,0,0,-5.719,-5.7193,-5.7323,-5.7323,-5.7322,-5.7313,-5.7313,-5.7313,-5.7138,-5.7133,-5.7127,-5.7122,-5.7113,-5.7117,-5.7122,0,0,0,0,0,0,0,0,0,0,0,0,0,-5.7221,-5.7194,-5.7323,-5.7234,-5.7226,-5.7313,-5.7313,-5.7313,-5.7139,-5.7133,-5.7126,-5.712,-5.7111,-5.7117,-5.7123,-5.7293,0,0,-5.7141,-5.7143,0,0,0,0,0,0,0,0,-5.7219,-5.7226,-5.7247,-5.7241,-5.7232,-5.7219,-5.7262,-5.7306,-5.7141,-5.7172,-5.7124,-5.7116,-5.7155,-5.7156,-5.7169,-5.7293,-5.7292,-5.7141,-5.7145,-5.7147,-5.7149,0,0,0,0,0,0,0,-5.7217,-5.7225,-5.7319,-5.7248,-5.7238,-5.7195,-5.7192,-5.727,-5.7201,-5.7169,-5.7156,-5.7158,-5.7149,-5.7164,-5.7168,-5.7292,-5.7141,-5.7146,-5.715,-5.7152,-5.7553,-5.756,0,0,0,0,0,0,-5.7228,-5.7225,-5.7319,-5.7318,-5.7209,-5.7203,-5.7199,-5.723,-5.72,-5.7189,-5.7163,-5.7149,-5.7157,-5.7161,-5.7167,-5.7362,-5.7147,-5.7153,-5.7156,-5.7546,-5.7555,-5.7563,0,0,0,0,0,0,-5.7225,-5.7238,-5.7319,-5.7268,-5.7275,-5.7212,-5.7248,-5.7234,-5.7248,-5.7196,-5.7182,-5.7191,-5.7152,-5.7158,-5.7263,-5.7359,-5.7155,-5.7161,-5.7538,-5.7549,-5.7559,-5.7755,0,0,0,0,0,0,-5.7222,-5.7238,-5.7302,-5.7271,-5.7279,-5.7416,-5.7254,-5.7238,-5.7259,-5.7241,-5.7218,-5.7208,-5.7147,-5.7255,-5.7269,-5.7363,-5.7165,-5.7529,-5.7543,-5.7555,-5.774,-5.7772,-5.7799,0,0,0,0,0,-5.7218,-5.7358,-5.7306,-5.7318,-5.7357,-5.7422,-5.7426,-5.7353,-5.7268,-5.7331,-5.7297,-5.7209,-5.7348,-5.7267,-5.7281,-5.7379,-5.7522,-5.7539,-5.7554,-5.7727,-5.7765,-5.7798,0,0,0,0,0,0,-5.7402,-5.7352,-5.7294,-5.7428,-5.7431,-5.7392,-5.747,-5.7397,-5.7424,-5.7405,-5.7314,-5.7311,-5.7429,-5.7415,-5.7326,-5.7542,-5.7419,-5.7439,-5.7546,-5.7582,-5.7611,-5.761,-5.717,0,0,0,0,0,-5.7458,-5.7515,-5.7469,-5.7591,-5.7596,-5.7534,-5.7559,-5.7503,-5.7501,-5.7501,-5.7475,-5.7477,-5.7521,-5.7551,-5.7589,-5.7739,-5.773,-5.7813,-5.7843,-5.7867,-5.7884,-5.796,-5.7995,-5.7615,-5.7615,-5.7615,0,0,-5.7574,-5.7555,-5.7596,-5.7628,-5.7623,-5.7683,-5.7535,-5.7605,-5.7648,-5.7512,-5.7607,-5.7589,-5.7586,-5.7713,-5.7768,-5.7705,-5.7988,-5.7888,-5.7907,-5.7911,-5.798,-5.8016,-5.8048,-5.7626,-5.7624,-5.7623,0,0,-5.7816,-5.7808,-5.7908,-5.7907,-5.7901,-5.7859,-5.7884,-5.7857,-5.7839,-5.7934,-5.7832,-5.7883,-5.7961,-5.7962,-5.7973,-5.8217,-5.8136,-5.8232,-5.8384,-5.8459,-5.8489,-5.8515,-5.8599,-5.8631,-5.825,-5.8251,-5.8251,0,-5.7961,-5.8047,-5.7969,-5.8045,-5.8061,-5.7942,-5.8042,-5.8045,-5.8053,-5.8066,-5.7997,-5.8091,-5.8081,-5.8205,-5.8265,-5.8279,-5.8302,-5.8232,-5.8491,-5.8516,-5.8539,-5.8618,-5.8651,-5.8262,-5.8261,-5.826,-5.8258,0,-5.8224,-5.8285,-5.8367,-5.8377,-5.8403,-5.8492,-5.8426,-5.8463,-5.8406,-5.8371,-5.8469,-5.8453,-5.8484,-5.851,-5.8455,-5.8628,-5.8588,-5.8507,-5.8381,-5.8588,-5.8661,-5.8691,-5.8278,-5.8274,-5.8271,-5.8268,0,0,-5.8577,-5.8544,-5.8575,-5.8577,-5.8563,-5.8609,-5.8693,-5.8723,-5.8754,-5.8765,-5.8831,-5.8901,-5.8825,-5.8837,-5.8782,-5.8849,-5.904,-5.8758,-5.8757,-5.8808,-5.9226,-5.9284,-5.932,-5.8988,-5.8994,-5.8998,-5.9225,0,-5.8807,-5.8946,-5.8879,-5.9025,-5.908,-5.8968,-5.904,-5.904,-5.9011,-5.9053,-5.9021,-5.907,-5.8968,-5.8975,-5.9036,-5.9004,-5.9122,-5.8987,-5.9046,-5.905,-5.9046,-5.9359,-5.9421,-5.9635,-5.9253,-5.9258,-5.9261,0,-5.9093,-5.9115,-5.9267,-5.9242,-5.9263,-5.9329,-5.9351,-5.9394,-5.9391,-5.9365,-5.938,-5.9309,-5.9388,-5.9268,-5.9375,-5.9285,-5.9306,-5.9294,-5.9301,-5.93,-5.9165,-5.9363,-5.9702,-5.9733,-5.9306,-5.9302,-5.9299,0,-5.9331,-5.9399,-5.9498,-5.9504,-5.9479,-5.9528,-5.952,-5.951,-5.9533,-5.9553,-5.9566,-5.9597,-5.9612,-5.9637,-5.9576,-5.9494,-5.9691,-5.9566,-5.967,-5.9671,-5.9712,-5.971,-6.0056,-5.9734,-5.9733,-5.9733,-5.9732,0,-5.9593,-5.9689,-5.9604,-5.9665,-5.9769,-5.9692,-5.9798,-5.9778,-5.9771,-5.9825,-5.9733,-5.9786,-5.9704,-5.9749,-5.9703,-5.9797,-5.9806,-5.9786,-5.9772,-5.9792,-5.9794,-5.9801,-5.9783,-5.9741,-5.9739,-5.9738,-5.9736,0,-5.9874,-5.9822,-5.9921,-5.989,-5.9884,-5.9963,-5.9935,-5.999,-5.9955,-6.0025,-6.0037,-5.9983,-6.0031,-5.9974,-6.0018,-5.9987,-6.0114,-6.008,-6.0114,-6.0103,-6.0209,-6.0199,-6.0568,-6.0612,-6.0266,-6.027,-6.0273,0,-6.0043,-6.0114,-6.009,-6.012,-6.0117,-6.0166,-6.0189,-6.0117,-6.0144,-6.0147,-6.0201,-6.0241,-6.0269,-6.0352,-6.0316,-6.0349,-6.0312,-6.044,-6.0316,-6.0334,-6.031,-6.0305,-6.031,-6.0464,-6.0468,-6.0471,-6.0474,0,-6.0346,-6.0316,-6.0352,-6.0379,-6.0408,-6.0427,-6.0437,-6.0467,-6.0392,-6.0428,-6.0475,-6.0498,-6.0542,-6.0583,-6.0606,-6.0597,-6.0523,-6.0514,-6.0539,-6.0558,-6.0574,-6.0563,-6.0179,-6.0505,-6.0502,-6.0499,-6.0498,-6.0496,-6.0573,-6.063,-6.0622,-6.0665,-6.0666,-6.0678,-6.0727,-6.0699,-6.0738,-6.0768,-6.0724,-6.0783,-6.0779,-6.0802,-6.0803,-6.0848,-6.0793,-6.0831,-6.0839,-6.0849,-6.0863,-6.0571,-6.0853,-6.0852,-6.0851,-6.085,-6.0849,0,-6.0867,-6.0857,-6.0898,-6.0915,-6.0949,-6.0878,-6.0887,-6.0919,-6.0973,-6.0975,-6.1005,-6.106,-6.1099,-6.1068,-6.1101,-6.1143,-6.111,-6.1154,-6.1148,-6.1146,-6.0912,-6.0885,-6.118,-6.118,-6.118,-6.118,-6.118,-6.118,-6.1024,-6.1117,-6.1087,-6.1179,-6.1168,-6.1225,-6.1236,-6.1247,-6.1248,-6.1313,-6.1345,-6.1325,-6.1313,-6.1345,-6.1378,-6.1367,-6.1382,-6.1438,-6.1415,-6.1196,-6.1163,-6.1132,-6.1106,-6.1443,-6.1443,-6.1645,-6.1647,-6.1649]},{"header":{"parameterUnit":"m.s-1","parameterCategory":1,"la1":30.2991,"la2":30.254,"lo1":-89.0895,"lo2":-89.0444,"dy":0.0017,"dx":0.0017,"nx":28,"ny":28,"refTime":"2024-06-19T09:00:00:Z","depth":0,"parameterNumber":3,"parameterNumberName":"V-component_of_WINDS"},"data":[0,0,0,0,0,0,0,0,0,0,0,0,0,0,0,0,0,0,0,0,0,0,0,0,0,0,0,0,0,0,0,0,0,0,0,0,0,0,0,0,0,0,0,0,0,0,0,0,0,0,0,0,0,0,0,0,0,0,1.8558,1.8559,0,1.8605,1.8606,1.8606,1.8587,1.8585,1.8584,1.8583,1.863,1.8632,1.8635,0,0,0,0,0,0,0,0,0,0,0,0,0,1.8452,1.8454,1.8558,1.8559,1.8559,1.8605,1.8606,1.8606,1.8587,1.8585,1.8584,1.8583,1.8629,1.8632,1.8635,0,0,0,0,0,0,0,0,0,0,0,0,0,1.8499,1.8455,1.8558,1.8555,1.8555,1.8605,1.8606,1.8606,1.8587,1.8585,1.8584,1.8582,1.8629,1.8632,1.8635,1.869,0,0,1.8646,1.8647,0,0,0,0,0,0,0,0,1.8496,1.8503,1.8555,1.8555,1.8556,1.8588,1.8586,1.8635,1.8587,1.8575,1.8583,1.8581,1.8618,1.8622,1.8634,1.8692,1.8694,1.8646,1.8648,1.865,1.8651,0,0,0,0,0,0,0,1.8493,1.85,1.8577,1.8556,1.8556,1.8552,1.8556,1.8595,1.8605,1.8576,1.8575,1.858,1.8617,1.8631,1.8635,1.8695,1.8646,1.8649,1.8651,1.8653,1.8803,1.8805,0,0,0,0,0,0,1.849,1.8498,1.8575,1.8578,1.8521,1.8555,1.856,1.8579,1.8605,1.8607,1.8582,1.8579,1.8626,1.8631,1.8637,1.8704,1.865,1.8653,1.8655,1.8801,1.8803,1.8805,0,0,0,0,0,0,1.8487,1.8497,1.8573,1.8538,1.8547,1.8559,1.858,1.8581,1.8595,1.8609,1.8611,1.8594,1.8625,1.8632,1.8678,1.8705,1.8654,1.8658,1.8799,1.8802,1.8804,1.8837,0,0,0,0,0,0,1.8484,1.8496,1.8517,1.8538,1.8549,1.8613,1.8582,1.8583,1.8601,1.8598,1.8621,1.8623,1.8624,1.8673,1.8681,1.8709,1.866,1.8796,1.88,1.8804,1.8834,1.8841,1.8847,0,0,0,0,0,1.8481,1.8523,1.8518,1.8527,1.8575,1.8615,1.8621,1.8622,1.8603,1.8624,1.8634,1.8622,1.8701,1.8677,1.8687,1.8716,1.8795,1.8799,1.8803,1.8831,1.8839,1.8847,0,0,0,0,0,0,1.8503,1.8526,1.852,1.8571,1.8591,1.8611,1.8637,1.8631,1.8656,1.8652,1.8652,1.8657,1.8705,1.8715,1.8688,1.8772,1.8745,1.8751,1.8763,1.8771,1.8778,1.8774,1.8663,0,0,0,0,0,1.8514,1.8544,1.8563,1.8606,1.8617,1.8626,1.8643,1.8642,1.8663,1.8671,1.8684,1.8705,1.8734,1.8753,1.8781,1.8836,1.8841,1.8861,1.8867,1.8873,1.8878,1.8909,1.8918,1.882,1.882,1.882,0,0,1.8537,1.8553,1.8572,1.8611,1.8626,1.8658,1.8633,1.8667,1.869,1.8676,1.872,1.8731,1.8754,1.8805,1.8828,1.8815,1.8907,1.8878,1.8882,1.8885,1.8914,1.8924,1.8932,1.8823,1.8822,1.8822,0,0,1.8594,1.8609,1.8647,1.8664,1.8689,1.8695,1.8705,1.8727,1.8733,1.8778,1.8769,1.8797,1.8848,1.8865,1.888,1.8948,1.8939,1.8957,1.8991,1.9022,1.9029,1.9036,1.9061,1.9069,1.8963,1.8963,1.8963,0,1.8618,1.8666,1.8668,1.8704,1.8721,1.8712,1.8751,1.8767,1.8799,1.8812,1.8798,1.8862,1.8877,1.8932,1.8949,1.8962,1.8973,1.8954,1.9028,1.9035,1.9042,1.9065,1.9074,1.8965,1.8965,1.8965,1.8964,0,1.8696,1.8729,1.8757,1.879,1.8811,1.8848,1.8856,1.8878,1.8876,1.8884,1.8931,1.8949,1.8981,1.8994,1.8992,1.905,1.9041,1.9028,1.9001,1.9053,1.9075,1.9084,1.8968,1.8967,1.8967,1.8966,0,0,1.8765,1.8801,1.8811,1.8827,1.8855,1.888,1.8918,1.8951,1.8969,1.8993,1.9025,1.9069,1.9058,1.9075,1.9076,1.9103,1.9156,1.9086,1.9086,1.9098,1.9222,1.9231,1.9241,1.9151,1.9152,1.9154,1.922,0,1.8824,1.8891,1.8895,1.8955,1.8986,1.8979,1.9012,1.9033,1.9043,1.9071,1.9081,1.9113,1.9095,1.9106,1.9132,1.9144,1.9181,1.9139,1.918,1.9182,1.9174,1.9253,1.9263,1.9324,1.9228,1.923,1.9231,0,1.8902,1.8929,1.8992,1.9018,1.9031,1.9061,1.9092,1.9119,1.9144,1.9149,1.9171,1.9168,1.9208,1.9181,1.9236,1.9208,1.9225,1.9234,1.9236,1.9239,1.9208,1.9257,1.9343,1.9352,1.9244,1.9243,1.9242,0,1.8946,1.8999,1.9044,1.9058,1.9089,1.911,1.9124,1.9147,1.9167,1.9195,1.9208,1.9239,1.9256,1.9281,1.9288,1.9268,1.9343,1.9317,1.9349,1.9349,1.9363,1.9362,1.9453,1.9376,1.9376,1.9376,1.9376,0,1.9011,1.905,1.9065,1.9093,1.9137,1.9142,1.9186,1.9199,1.922,1.925,1.9246,1.9275,1.9282,1.9313,1.9318,1.9363,1.9371,1.9377,1.9378,1.9377,1.9376,1.9387,1.9383,1.9378,1.9378,1.9377,1.9377,0,1.9068,1.9079,1.9128,1.9154,1.9162,1.9193,1.9216,1.9243,1.9253,1.9292,1.9302,1.9317,1.9353,1.9363,1.9405,1.9409,1.9463,1.946,1.9454,1.9454,1.9485,1.9482,1.9585,1.9599,1.9514,1.9515,1.9516,0,1.9108,1.9138,1.9169,1.9189,1.9204,1.9237,1.9258,1.9266,1.9288,1.932,1.9343,1.9379,1.9408,1.9466,1.9481,1.9514,1.9512,1.9546,1.9516,1.9515,1.9512,1.951,1.9513,1.9551,1.9552,1.9552,1.9553,0,1.9178,1.9183,1.9214,1.9247,1.9273,1.9299,1.9324,1.9342,1.9353,1.9378,1.9415,1.9438,1.9483,1.9518,1.9552,1.9567,1.9562,1.9563,1.9572,1.957,1.9566,1.9569,1.9469,1.956,1.9559,1.9558,1.9558,1.9558,1.9228,1.9255,1.9281,1.9316,1.9337,1.9361,1.9388,1.9403,1.9434,1.9471,1.9474,1.9515,1.9541,1.9586,1.9603,1.9636,1.9625,1.9638,1.9642,1.9645,1.9647,1.9562,1.9642,1.9642,1.9642,1.9641,1.9641,0,1.9298,1.9315,1.9348,1.9384,1.9412,1.9407,1.9435,1.9459,1.9495,1.952,1.9549,1.9593,1.9628,1.9647,1.9683,1.9705,1.9704,1.9714,1.9712,1.9716,1.9654,1.9643,1.9714,1.9714,1.9714,1.9714,1.9714,1.9714,1.9338,1.9384,1.9392,1.9449,1.9466,1.9506,1.9523,1.9546,1.9567,1.9616,1.9646,1.9658,1.9682,1.9719,1.9752,1.9757,1.977,1.9781,1.9785,1.9727,1.972,1.9712,1.9702,1.9784,1.9784,1.9843,1.9844,1.9844]}]]